STARLINK-1668 (46536 NORAD) Tracking and Keplerian Element Data

This shows tracking and keplerian element data for the satellite.

Feedback or suggestion? Click here.




ElementValue
Catalog46536
NameSTARLINK-1668
Epoch Orbit177
Epoch Day304.91667824
Epoch Year2020
RAAN321.9491
Inclination53.0004
Eccentricity0.0001193
Argument of Perigee71.4992
Mean Anonmoly183.8997
Mean Motion15.62672013
Decay Rate0.00071469
L11 46536U 20070E 20304.91667824 .00071469 00000-0 78195-3 0 9995
L22 46536 53.0004 321.9491 0001193 71.4992 183.8997 15.62672013 1776

Live tracking and technical data element details for STARLINK-1668 (NORAD 46536). STARLINK-1668 can be tracked NOW for your location showing map with azimuth and elevation plus other details from your city location.

Track the satellite on the map from your city or location and see movement details for azimuth, elevation, latitude, longitude, range, height, and movement on the map or in text.







IsCatalogInMostPopularTable: catalog: 46536, numindb: 3
Update: records affected: 1



GetName: 46536 STARLINK-1668

Hit Count: updated at: Sat, 31 Oct 2020 08:24:48 GMT